Time,TemperatureF,DewpointF,PressureIn,WindDirection,WindDirectionDegrees,WindSpeedMPH,WindSpeedGustMPH,Humidity,HourlyPrecipIn,Conditions,Clouds,dailyrainin,SoftwareType,DateUTC
2013-05-15 00:03:00,64.0,42.0,-100.00,SW,230,7.0,10.0,45,-99.99,,,-99.99,,2013-05-15 04:03:00,
2013-05-15 00:12:00,64.0,42.0,-100.00,WSW,240,7.0,11.0,45,-99.99,,,-99.99,,2013-05-15 04:12:00,
2013-05-15 00:24:00,64.0,42.0,-100.00,WSW,240,7.0,10.0,45,-99.99,,,-99.99,,2013-05-15 04:24:00,
2013-05-15 00:33:00,64.0,42.0,-100.00,SW,230,6.0,10.0,45,-99.99,,,-99.99,,2013-05-15 04:33:00,
2013-05-15 00:43:00,64.0,43.0,-100.00,SW,230,7.0,9.0,46,-99.99,,,-99.99,,2013-05-15 04:43:00,
2013-05-15 00:52:00,63.0,42.0,-100.00,SW,235,6.0,10.0,46,-99.99,,,-99.99,,2013-05-15 04:52:00,
2013-05-15 01:02:00,63.0,42.0,-100.00,SW,230,6.0,9.0,46,-99.99,,,-99.99,,2013-05-15 05:02:00,
2013-05-15 01:12:00,63.0,42.0,-100.00,SW,235,8.0,9.0,46,-99.99,,,-99.99,,2013-05-15 05:12:00,
2013-05-15 01:22:00,63.0,42.0,-100.00,SW,230,5.0,9.0,47,-99.99,,,-99.99,,2013-05-15 05:22:00,
2013-05-15 01:32:00,63.0,43.0,-100.00,SW,235,6.0,10.0,48,-99.99,,,-99.99,,2013-05-15 05:32:00,
2013-05-15 01:42:00,62.0,42.0,-100.00,WSW,240,6.0,9.0,48,-99.99,,,-99.99,,2013-05-15 05:42:00,
2013-05-15 01:52:00,62.0,42.0,-100.00,SW,230,7.0,9.0,48,-99.99,,,-99.99,,2013-05-15 05:52:00,
2013-05-15 02:02:00,62.0,43.0,-100.00,SW,230,6.0,9.0,49,-99.99,,,-99.99,,2013-05-15 06:02:00,
2013-05-15 02:11:00,62.0,43.0,-100.00,WSW,245,6.0,9.0,50,-99.99,,,-99.99,,2013-05-15 06:11:00,
2013-05-15 02:22:00,61.0,42.0,-100.00,WSW,240,6.0,9.0,50,-99.99,,,-99.99,,2013-05-15 06:22:00,
2013-05-15 02:32:00,61.0,42.0,-100.00,SW,235,6.0,8.0,50,-99.99,,,-99.99,,2013-05-15 06:32:00,
2013-05-15 02:42:00,61.0,42.0,-100.00,SW,235,6.0,9.0,50,-99.99,,,-99.99,,2013-05-15 06:42:00,
2013-05-15 02:52:00,61.0,42.0,-100.00,SW,235,6.0,9.0,50,-99.99,,,-99.99,,2013-05-15 06:52:00,
2013-05-15 03:01:00,61.0,43.0,-100.00,SW,235,7.0,9.0,50,-99.99,,,-99.99,,2013-05-15 07:01:00,
2013-05-15 03:11:00,61.0,43.0,-100.00,SW,235,7.0,10.0,50,-99.99,,,-99.99,,2013-05-15 07:11:00,
2013-05-15 03:22:00,61.0,43.0,-100.00,SW,235,7.0,9.0,50,-99.99,,,-99.99,,2013-05-15 07:22:00,
2013-05-15 03:32:00,61.0,42.0,-100.00,SW,235,5.0,9.0,50,-99.99,,,-99.99,,2013-05-15 07:32:00,
2013-05-15 03:42:00,61.0,42.0,-100.00,SW,230,6.0,9.0,50,-99.99,,,-99.99,,2013-05-15 07:42:00,
2013-05-15 03:52:00,61.0,43.0,-100.00,WSW,245,6.0,9.0,51,-99.99,,,-99.99,,2013-05-15 07:52:00,
2013-05-15 04:02:00,62.0,43.0,-100.00,WSW,250,6.0,9.0,50,-99.99,,,-99.99,,2013-05-15 08:02:00,
2013-05-15 04:12:00,62.0,43.0,-100.00,WSW,250,6.0,9.0,50,-99.99,,,-99.99,,2013-05-15 08:12:00,
2013-05-15 04:21:00,62.0,43.0,-100.00,WSW,250,6.0,9.0,50,-99.99,,,-99.99,,2013-05-15 08:21:00,
2013-05-15 04:32:00,61.0,43.0,-100.00,WSW,255,4.0,9.0,51,-99.99,,,-99.99,,2013-05-15 08:32:00,
2013-05-15 04:42:00,61.0,43.0,-100.00,WSW,250,4.0,7.0,51,-99.99,,,-99.99,,2013-05-15 08:42:00,
2013-05-15 04:53:00,61.0,43.0,-100.00,WSW,250,6.0,10.0,51,-99.99,,,-99.99,,2013-05-15 08:53:00,
2013-05-15 05:01:00,61.0,43.0,-100.00,WSW,245,6.0,9.0,51,-99.99,,,-99.99,,2013-05-15 09:01:00,
2013-05-15 05:12:00,62.0,43.0,-100.00,WSW,245,8.0,10.0,51,-99.99,,,-99.99,,2013-05-15 09:12:00,
2013-05-15 05:22:00,62.0,44.0,-100.00,WSW,245,6.0,10.0,51,-99.99,,,-99.99,,2013-05-15 09:22:00,
2013-05-15 05:33:00,62.0,43.0,-100.00,WSW,240,9.0,13.0,51,-99.99,,,-99.99,,2013-05-15 09:33:00,
2013-05-15 05:42:00,62.0,44.0,-100.00,WSW,245,8.0,11.0,52,-99.99,,,-99.99,,2013-05-15 09:42:00,
2013-05-15 05:53:00,62.0,44.0,-100.00,WSW,240,8.0,11.0,52,-99.99,,,-99.99,,2013-05-15 09:53:00,
2013-05-15 06:02:00,62.0,44.0,-100.00,WSW,250,8.0,13.0,52,-99.99,,,-99.99,,2013-05-15 10:02:00,
2013-05-15 06:13:00,62.0,44.0,-100.00,WSW,245,9.0,13.0,52,-99.99,,,-99.99,,2013-05-15 10:13:00,
2013-05-15 06:23:00,62.0,44.0,-100.00,WSW,250,9.0,11.0,52,-99.99,,,-99.99,,2013-05-15 10:23:00,
2013-05-15 06:32:00,62.0,44.0,-100.00,WSW,245,8.0,11.0,53,-99.99,,,-99.99,,2013-05-15 10:32:00,
2013-05-15 06:42:00,61.0,45.0,-100.00,WSW,245,6.0,11.0,54,-99.99,,,-99.99,,2013-05-15 10:42:00,
2013-05-15 06:52:00,61.0,44.0,-100.00,WSW,250,6.0,10.0,54,-99.99,,,-99.99,,2013-05-15 10:52:00,
2013-05-15 07:13:00,61.0,44.0,-100.00,WSW,240,7.0,11.0,54,-99.99,,,-99.99,,2013-05-15 11:13:00,
2013-05-15 07:19:00,61.0,45.0,-100.00,WSW,245,6.0,10.0,55,-99.99,,,-99.99,,2013-05-15 11:19:00,
2013-05-15 07:28:00,61.0,45.0,-100.00,WSW,245,6.0,9.0,55,-99.99,,,-99.99,,2013-05-15 11:28:00,
2013-05-15 07:38:00,62.0,45.0,-100.00,WSW,250,7.0,10.0,55,-99.99,,,-99.99,,2013-05-15 11:38:00,
2013-05-15 07:48:00,62.0,46.0,-100.00,WSW,245,8.0,11.0,56,-99.99,,,-99.99,,2013-05-15 11:48:00,
2013-05-15 08:10:00,63.0,47.0,-100.00,SW,235,8.0,14.0,55,-99.99,,,-99.99,,2013-05-15 12:10:00,
2013-05-15 08:16:00,64.0,48.0,-100.00,WSW,240,9.0,13.0,55,-99.99,,,-99.99,,2013-05-15 12:16:00,
2013-05-15 08:29:00,65.0,48.0,-100.00,SW,235,7.0,14.0,54,-99.99,,,-99.99,,2013-05-15 12:29:00,
2013-05-15 08:48:00,67.0,49.0,-100.00,WSW,240,8.0,13.0,52,-99.99,,,-99.99,,2013-05-15 12:48:00,
2013-05-15 08:55:00,69.0,50.0,-100.00,WSW,255,8.0,13.0,51,-99.99,,,-99.99,,2013-05-15 12:55:00,
2013-05-15 09:11:00,70.0,50.0,-100.00,WSW,245,10.0,16.0,50,-99.99,,,-99.99,,2013-05-15 13:11:00,
2013-05-15 09:19:00,70.0,50.0,-100.00,WSW,240,7.0,15.0,49,-99.99,,,-99.99,,2013-05-15 13:19:00,
2013-05-15 09:36:00,71.0,51.0,-100.00,WSW,255,11.0,15.0,49,-99.99,,,-99.99,,2013-05-15 13:36:00,
2013-05-15 09:57:00,75.0,53.0,-100.00,WSW,255,8.0,15.0,46,-99.99,,,-99.99,,2013-05-15 13:57:00,
2013-05-15 10:14:00,76.0,53.0,-100.00,WSW,245,10.0,19.0,45,-99.99,,,-99.99,,2013-05-15 14:14:00,
2013-05-15 10:27:00,76.0,53.0,-100.00,West,260,11.0,19.0,44,-99.99,,,-99.99,,2013-05-15 14:27:00,
2013-05-15 10:38:00,78.0,54.0,-100.00,WSW,250,10.0,17.0,44,-99.99,,,-99.99,,2013-05-15 14:38:00,
2013-05-15 11:09:00,79.0,54.0,-100.00,WSW,245,14.0,20.0,42,-99.99,,,-99.99,,2013-05-15 15:09:00,
2013-05-15 11:16:00,80.0,54.0,-100.00,WSW,245,9.0,19.0,42,-99.99,,,-99.99,,2013-05-15 15:16:00,
2013-05-15 11:29:00,81.0,54.0,-100.00,WSW,255,13.0,17.0,40,-99.99,,,-99.99,,2013-05-15 15:29:00,
2013-05-15 11:38:00,82.0,54.0,-100.00,West,280,9.0,19.0,39,-99.99,,,-99.99,,2013-05-15 15:38:00,
2013-05-15 11:48:00,82.0,54.0,-100.00,WNW,295,11.0,18.0,39,-99.99,,,-99.99,,2013-05-15 15:48:00,
2013-05-15 11:57:00,82.0,55.0,-100.00,WSW,255,10.0,18.0,39,-99.99,,,-99.99,,2013-05-15 15:57:00,
2013-05-15 12:10:00,83.0,55.0,-100.00,West,270,11.0,22.0,38,-99.99,,,-99.99,,2013-05-15 16:10:00,
2013-05-15 12:24:00,82.0,54.0,-100.00,NW,305,9.0,20.0,38,-99.99,,,-99.99,,2013-05-15 16:24:00,
2013-05-15 12:30:00,85.0,54.0,-100.00,West,275,11.0,21.0,35,-99.99,,,-99.99,,2013-05-15 16:30:00,
2013-05-15 12:38:00,84.0,54.0,-100.00,West,270,11.0,19.0,36,-99.99,,,-99.99,,2013-05-15 16:38:00,
2013-05-15 12:48:00,85.0,55.0,-100.00,West,270,12.0,19.0,36,-99.99,,,-99.99,,2013-05-15 16:48:00,
2013-05-15 12:54:00,84.0,54.0,-100.00,West,270,11.0,19.0,36,-99.99,,,-99.99,,2013-05-15 16:54:00,
2013-05-15 13:12:00,85.0,54.0,-100.00,West,275,11.0,21.0,35,-99.99,,,-99.99,,2013-05-15 17:12:00,
2013-05-15 13:20:00,85.0,54.0,-100.00,West,275,11.0,21.0,35,-99.99,,,-99.99,,2013-05-15 17:20:00,
2013-05-15 13:28:00,85.0,54.0,-100.00,West,275,11.0,21.0,35,-99.99,,,-99.99,,2013-05-15 17:28:00,
2013-05-15 13:49:00,87.0,55.0,-100.00,WNW,295,11.0,18.0,34,-99.99,,,-99.99,,2013-05-15 17:49:00,
2013-05-15 13:59:00,88.0,55.0,-100.00,NW,320,6.0,14.0,33,-99.99,,,-99.99,,2013-05-15 17:59:00,
2013-05-15 14:07:00,88.0,56.0,-100.00,West,260,8.0,14.0,33,-99.99,,,-99.99,,2013-05-15 18:07:00,
2013-05-15 14:38:00,88.0,55.0,-100.00,West,280,12.0,19.0,33,-99.99,,,-99.99,,2013-05-15 18:38:00,
2013-05-15 14:47:00,88.0,55.0,-100.00,West,270,11.0,22.0,33,-99.99,,,-99.99,,2013-05-15 18:47:00,
2013-05-15 14:55:00,89.0,55.0,-100.00,West,260,10.0,17.0,32,-99.99,,,-99.99,,2013-05-15 18:55:00,
2013-05-15 15:09:00,90.0,55.0,-100.00,West,275,8.0,17.0,31,-99.99,,,-99.99,,2013-05-15 19:09:00,
2013-05-15 15:16:00,90.0,56.0,-100.00,West,275,7.0,17.0,32,-99.99,,,-99.99,,2013-05-15 19:16:00,
2013-05-15 15:39:00,90.0,55.0,-100.00,West,275,8.0,15.0,31,-99.99,,,-99.99,,2013-05-15 19:39:00,
2013-05-15 15:47:00,89.0,54.0,-100.00,WNW,295,13.0,19.0,31,-99.99,,,-99.99,,2013-05-15 19:47:00,
2013-05-15 16:09:00,90.0,55.0,-100.00,WSW,250,14.0,20.0,31,-99.99,,,-99.99,,2013-05-15 20:09:00,
2013-05-15 16:30:00,90.0,55.0,-100.00,WNW,295,12.0,18.0,31,-99.99,,,-99.99,,2013-05-15 20:30:00,
2013-05-15 16:40:00,90.0,56.0,-100.00,WSW,245,11.0,20.0,31,-99.99,,,-99.99,,2013-05-15 20:40:00,
2013-05-15 16:47:00,90.0,55.0,-100.00,WSW,245,12.0,18.0,31,-99.99,,,-99.99,,2013-05-15 20:47:00,
2013-05-15 16:53:00,90.0,56.0,-100.00,West,265,13.0,19.0,31,-99.99,,,-99.99,,2013-05-15 20:53:00,
2013-05-15 17:09:00,90.0,55.0,-100.00,WSW,245,11.0,18.0,31,-99.99,,,-99.99,,2013-05-15 21:09:00,
2013-05-15 17:20:00,90.0,55.0,-100.00,West,270,10.0,19.0,31,-99.99,,,-99.99,,2013-05-15 21:20:00,
2013-05-15 17:28:00,90.0,55.0,-100.00,West,270,10.0,19.0,31,-99.99,,,-99.99,,2013-05-15 21:28:00,
2013-05-15 17:41:00,90.0,56.0,-100.00,West,260,10.0,16.0,31,-99.99,,,-99.99,,2013-05-15 21:41:00,
2013-05-15 17:51:00,90.0,55.0,-100.00,West,260,10.0,16.0,31,-99.99,,,-99.99,,2013-05-15 21:51:00,
2013-05-15 18:01:00,90.0,55.0,-100.00,WNW,300,9.0,15.0,31,-99.99,,,-99.99,,2013-05-15 22:01:00,
2013-05-15 18:11:00,90.0,54.0,-100.00,West,275,8.0,15.0,30,-99.99,,,-99.99,,2013-05-15 22:11:00,
2013-05-15 18:50:00,89.0,54.0,-100.00,West,270,9.0,15.0,30,-99.99,,,-99.99,,2013-05-15 22:50:00,
2013-05-15 18:55:00,89.0,53.0,-100.00,WSW,245,9.0,16.0,30,-99.99,,,-99.99,,2013-05-15 22:55:00,
2013-05-15 19:17:00,89.0,53.0,-100.00,West,260,6.0,14.0,30,-99.99,,,-99.99,,2013-05-15 23:17:00,
2013-05-15 19:29:00,88.0,53.0,-100.00,WNW,285,6.0,13.0,30,-99.99,,,-99.99,,2013-05-15 23:29:00,
2013-05-15 19:39:00,88.0,53.0,-100.00,West,270,6.0,14.0,30,-99.99,,,-99.99,,2013-05-15 23:39:00,
2013-05-15 19:50:00,87.0,53.0,-100.00,West,275,8.0,14.0,31,-99.99,,,-99.99,,2013-05-15 23:50:00,
2013-05-15 20:08:00,86.0,52.0,-100.00,WSW,255,5.0,13.0,31,-99.99,,,-99.99,,2013-05-16 00:08:00,
2013-05-15 20:27:00,85.0,51.0,-100.00,West,265,6.0,9.0,32,-99.99,,,-99.99,,2013-05-16 00:27:00,
2013-05-15 20:36:00,85.0,51.0,-100.00,West,265,6.0,9.0,32,-99.99,,,-99.99,,2013-05-16 00:36:00,
2013-05-15 20:50:00,82.0,51.0,-100.00,West,260,5.0,8.0,34,-99.99,,,-99.99,,2013-05-16 00:50:00,
2013-05-15 21:08:00,80.0,50.0,-100.00,West,265,5.0,8.0,36,-99.99,,,-99.99,,2013-05-16 01:08:00,
2013-05-15 21:30:00,78.0,50.0,-100.00,WSW,255,6.0,8.0,37,-99.99,,,-99.99,,2013-05-16 01:30:00,
2013-05-15 21:38:00,77.0,50.0,-100.00,WSW,250,5.0,7.0,39,-99.99,,,-99.99,,2013-05-16 01:38:00,
2013-05-15 21:48:00,76.0,50.0,-100.00,WSW,245,4.0,7.0,39,-99.99,,,-99.99,,2013-05-16 01:48:00,
2013-05-15 21:56:00,76.0,50.0,-100.00,SW,235,4.0,4.0,41,-99.99,,,-99.99,,2013-05-16 01:56:00,
2013-05-15 22:08:00,75.0,51.0,-100.00,WSW,240,3.0,4.0,42,-99.99,,,-99.99,,2013-05-16 02:08:00,
2013-05-15 22:18:00,74.0,51.0,-100.00,SW,235,3.0,4.0,44,-99.99,,,-99.99,,2013-05-16 02:18:00,
2013-05-15 22:28:00,74.0,51.0,-100.00,WSW,250,4.0,4.0,45,-99.99,,,-99.99,,2013-05-16 02:28:00,
2013-05-15 22:39:00,73.0,51.0,-100.00,WSW,250,5.0,-999.0,46,-99.99,,,-99.99,,2013-05-16 02:39:00,
2013-05-15 22:46:00,73.0,51.0,-100.00,WSW,250,5.0,-999.0,46,-99.99,,,-99.99,,2013-05-16 02:46:00,
2013-05-15 22:54:00,73.0,51.0,-100.00,WSW,250,5.0,-999.0,46,-99.99,,,-99.99,,2013-05-16 02:54:00,
2013-05-15 23:07:00,73.0,52.0,-100.00,WSW,240,8.0,11.0,47,-99.99,,,-99.99,,2013-05-16 03:07:00,
2013-05-15 23:17:00,74.0,53.0,-100.00,WSW,245,8.0,10.0,48,-99.99,,,-99.99,,2013-05-16 03:17:00,
2013-05-15 23:27:00,74.0,53.0,-100.00,WSW,245,6.0,11.0,48,-99.99,,,-99.99,,2013-05-16 03:27:00,
2013-05-15 23:39:00,74.0,53.0,-100.00,WSW,245,7.0,10.0,48,-99.99,,,-99.99,,2013-05-16 03:39:00,
2013-05-15 23:46:00,74.0,53.0,-100.00,WSW,240,7.0,10.0,48,-99.99,,,-99.99,,2013-05-16 03:46:00,
2013-05-15 23:56:00,73.0,52.0,-100.00,SW,235,7.0,10.0,48,-99.99,,,-99.99,,2013-05-16 03:56:00,